Preview of NWS' New Version of Forecast
This preview is not operational and should not be used for support decisions.

Regional Weather Roundup (RWR)

Issued by National Weather Service (NWS)

                            
000
ASUS43 KLSX 241857
RWRMO 

WEATHER SUMMARY FOR MISSOURI
NATIONAL WEATHER SERVICE SPRINGFIELD MO
200 PM CDT SUN MAR 24 2019

NOTE: "FAIR" INDICATES FEW OR NO CLOUDS BELOW 12,000 FEET WITH NO
       SIGNIFICANT WEATHER AND/OR OBSTRUCTIONS TO VISIBILITY.
       CURRENT SKY AND/OR WEATHER CONDITIONS ARE NOT AVAILABLE FOR
       CHILLICOTHE AND FARMINGTON.

MOZ001>031-035>038-043-044-053-054-242000-
...NORTHERN AND WESTERN MISSOURI...
  
CITY           SKY/WX    TMP DP  RH WIND       PRES   REMARKS
KANSAS CTY INT CLOUDY    53  43  68 W8        29.96S                  
LEE'S SUMMIT   PTSUNNY   61  44  53 W16G22    29.95R                  
ST JOSEPH        N/A    N/A N/A N/A MISG      29.96S                  
CHILLICOTHE      N/A     57  49  74 CALM      29.95F                  
KIRKSVILLE     CLOUDY    51  50  96 E3        29.96F FOG              
     
$$
MOZ066>068-077>081-088>096-101>105-242000-
...SOUTHWEST MISSOURI...
  
CITY           SKY/WX    TMP DP  RH WIND       PRES   REMARKS
SPRINGFIELD    CLOUDY    66  56  70 SW12      29.95F                  
JOPLIN         CLOUDY    59  55  87 W16       29.97F FOG              
BRANSON        PTSUNNY   68  55  64 SW9G17    29.99F                  
               
$$
MOZ032>034-039>042-045>050-055>058-069>072-242000-
...CENTRAL MISSOURI...  
  
CITY           SKY/WX    TMP DP  RH WIND       PRES   REMARKS
COLUMBIA       NOT AVBL                                               
JEFFERSON CITY CLOUDY    63  50  62 S7        29.96F                  
ROLLA          CLOUDY    63  52  67 S6        29.97F                  
SEDALIA        CLOUDY    60  53  77 SW9       29.95S                  
WARRENSBURG    PTSUNNY   61  46  59 SW7       29.94F                  
               
$$
MOZ051-052-059>065-242000-
...EAST CENTRAL MISSOURI...
  
CITY           SKY/WX    TMP DP  RH WIND       PRES   REMARKS
ST LOUIS INTL  PTSUNNY   63  49  60 CALM      29.98F                  
                   
$$
MOZ072>076-082>087-097>100-106>115-242000-
...SOUTH CENTRAL AND SOUTHEAST MISSOURI...
  
CITY           SKY/WX    TMP DP  RH WIND       PRES   REMARKS
CAPE GIRARDEAU CLOUDY    64  53  67 SW13      30.02F                  
POPLAR BLUFF   PTSUNNY   66  55  67 SW15      30.02F                  
WEST PLAINS    PTSUNNY   66  54  65 SW12G20   30.00F                  
                                       
$$